Volver al catálogo

NOAA 16 DEB

ActivoSSO
NORAD 41301·DEBRIS·🇺🇸 United States

Lanzado Sep 21, 2000 desde Vandenberg Space Force Base

Loading…

Próximos Pases (próximas 24 horas)

TLE

ActualizadoSource: Space-Track

Época: Sep 13, 2026, 08:06 UTC

1 41301U 00055HD  26256.33795082  .00002387  00000-0  10038-2 0  9991
2 41301  98.7048 296.9227 0018109 279.8720  80.0416 14.26680826552282

Sigue NOAA 16 DEB en tiempo real con AllMySat

Download on the App Store